{"data":{"norad_id":67966,"epoch":"2026-09-19T14:28:29.740800Z","epoch_age_seconds":140703,"freshness":"FRESH","line1":"1 67966U 26038F   26262.60312200  .00005727  00000+0  17965-3 0  9996","line2":"2 67966  97.2847 270.9222 0001223  98.2134 261.9248 15.33431061 32950","mean_motion":15.33431061,"eccentricity":0.0001223,"inclination_deg":97.2847,"raan_deg":270.9222,"arg_perigee_deg":98.2134,"mean_anomaly_deg":261.9248,"bstar":0.00017965,"rev_number":3295,"period_min":93.907058271073,"perigee_km":464.74766029189,"apogee_km":466.42163460685,"semimajor_km":6843.7216474494,"source":"CELESTRAK","updated_at":"2026-09-20T09:00:43.714208Z"}}